SCP
0 0 0 0 0 0 0 0 0 0 0 0 0 0 0 0 0 0 0 0 0 0 0 0 0 0 0 0 0 0 0 0 0 0 0 0 0 0 0 0 0 0 0 0
0 0 0 0 0 0 0 0 0 0 0 0 0 0 0 0 0 0 0 0 0 0 0 0 0 0 0 0 0 0 0 0 0 0 0 0 0 0 0 0 0 0 0 0
0 0 0 0 0 0 0 0 0 0 0 0 0 0 0 0 0 0 0 0 0 0 0 0 0 0 0 0 0 0 0 0 0 0 0 0 0 0 0 0 0 0 0 0
0 0 0 0 0 0 0 0 0 0 0 0 0 0 0 0 0 0 0 0 0 0 0 0 0 0 0 0 0 0 0 0 0 0 0 0 0 0 0 0 0 0 0 0
0 0 0 0 0 0 0 0 0 0 0 0 0 0 0 0 0 0 0 0 0 0 0 0 0 0 0 0 0 0 0 0 0 0 0 0 0 0 0 0 0 0 0 0
0 0 0 0 0 0 0 0 0 0 0 0 0 0 0 0 0 0 0 0 0 0 0 0 0 0 0 0 0 0 0 0 0 0 0 0 0 0 0 0 0 0 0 0
0 0 0 0 0 0 0 0 0 0 0 0 0 0 0 0 0 0 0 0 0 0 0 0 0 0 0 0 0 0 0 0 0 0 0 0 0 0 0 0 0 0 0 0
0 0 0 0 0 0 0 0 0 0 0 0 0 0 0 0 0 0 0 0 0 0 0 0 0 0 0 0 0 0 0 0 0 0 0 0 0 0 0 0 0 0 0 0
0 0 0 0 0 0 0 0 0 0 0 0 0 0 0 0 0 0 0 0 0 0 0 0 0 0 0 0 0 0 0 0 0 0 0 0 0 0 0 0 0 0 0 0
0 0 0 0 0 0 0 0 0 0 0 0 0 0 0 0 0 0 0 0 0 0 0 0 0 0 0 0 0 0 0 0 0 0 0 0 0 0 0 0 0 0 0 0
0 0 0 0 0 0 0 0 0 0 0 0 0 0 0 0 0 0 0 0 0 0 0 0 0 0 0 0 0 0 0 0 0 0 0 0 0 0 0 0 0 0 0 0
0 0 0 0 0 0 0 0 0 0 0 0 0 0 0 0 0 0 0 0 0 0 0 0 0 0 0 0 0 0 0 0 0 0 0 0 0 0 0 0 0 0 0 0
0 0 0 0 0 0 0 0 0 0 0 0 0 0 0 0 0 0 0 0 0 0 0 0 0 0 0 0 0 0 0 0 0 0 0 0 0 0 0 0 0 0 0 0
0 0 0 0 0 0 0 0 0 0 0 0 0 0 0 0 0 0 0 0 0 0 0 0 0 0 0 0 0 0 0 0 0 0 0 0 0 0 0 0 0 0 0 0
0 0 0 0 0 0 0 0 0 0 0 0 0 0 0 0 0 0 0 0 0 0 0 0 0 0 0 0 0 0 0 0 0 0 0 0 0 0 0 0 0 0 0 0
0 0 0 0 0 0 0 0 0 0 0 0 0 0 0 0 0 0 0 0 0 0 0 0 0 0 0 0 0 0 0 0 0 0 0 0 0 0 0 0 0 0 0 0
0 0 0 0 0 0 0 0 0 0 0 0 0 0 0 0 0 0 0 0 0 0 0 0 0 0 0 0 0 0 0 0 0 0 0 0 0 0 0 0 0 0 0 0
0 0 0 0 0 0 0 0 0 0 0 0 0 0 0 0 0 0 0 0 0 0 0 0 0 0 0 0 0 0 0 0 0 0 0 0 0 0 0 0 0 0 0 0
0 0 0 0 0 0 0 0 0 0 0 0 0 0 0 0 0 0 0 0 0 0 0 0 0 0 0 0 0 0 0 0 0 0 0 0 0 0 0 0 0 0 0 0
0 0 0 0 0 0 0 0 0 0 0 0 0 0 0 0 0 0 0 0 0 0 0 0 0 0 0 0 0 0 0 0 0 0 0 0 0 0 0 0 0 0 0 0
0 0 0 0 0 0 0 0 0 0 0 0 0 0 0 0 0 0 0 0 0 0 0 0 0 0 0 0 0 0 0 0 0 0 0 0 0 0 0 0 0 0 0 0
0 0 0 0 0 0 0 0 0 0 0 0 0 0 0 0 0 0 0 0 0 0 0 0 0 0 0 0 0 0 0 0 0 0 0 0 0 0 0 0 0 0 0 0
0 0 0 0 0 0 0 0 0 0 0 0 0 0 0 0 0 0 0 0 0 0 0 0 0 0 0 0 0 0 0 0 0 0 0 0 0 0 0 0 0 0 0 0
0 0 0 0 0 0 0 0 0 0 0 0 0 0 0 0 0 0 0 0 0 0 0 0 0 0 0 0 0 0 0 0 0 0 0 0 0 0 0 0 0 0 0 0
0 0 0 0 0 0 0 0 0 0 0 -0 0 0 0 0 0 0 0 0 0 0 0 0 0 0 0 0 0 0 0 0 0 0 0 0 0 0 0 0 0 0 0 0
0 0 0 0 0 0 0 0 0 0 0 0 0 0 0 0 0 0 0 0 0 0 0 0 0 0 0 0 0 0 0 0 0 0 0 0 0 0 0 0 0 0 0 0
Wind_Speed
2 6 10 13 11 2 4 5 6 4 1 5 11 17 17 15 13 16 17 16 16 17 16 13 14 15 15 16 16 16 16 15 12 9 9 7 7 6 5 4 6 9 10 11
5 11 10 4 6 4 5 6 8 4 1 5 10 18 18 18 19 18 19 19 19 18 16 13 13 14 17 18 18 18 18 17 16 12 9 6 6 5 4 4 5 7 9 11
15 4 5 8 7 9 9 12 11 6 1 4 7 15 14 11 11 14 17 20 21 20 20 17 14 15 16 18 19 17 18 18 17 14 9 5 4 3 4 6 6 7 9 10
12 6 7 8 10 12 11 9 9 6 6 5 4 11 10 7 10 12 16 17 20 20 19 17 14 14 16 17 15 17 17 18 17 16 14 15 12 12 12 8 7 8 8 9
10 10 10 11 10 14 5 4 4 3 5 7 7 10 14 5 13 16 17 20 20 18 16 15 13 13 13 14 14 15 16 18 18 18 18 17 15 12 9 9 10 9 8 9
2 4 6 5 3 7 9 8 6 3 2 11 10 12 16 10 13 13 13 15 16 14 12 11 9 8 10 11 12 14 16 18 18 19 18 19 18 15 13 13 12 9 7 7
7 5 4 5 8 6 8 7 4 5 6 12 6 11 17 9 12 12 11 12 10 7 7 7 7 7 9 11 13 14 16 17 18 19 19 18 18 17 17 15 14 12 9 8
13 12 13 11 11 13 14 14 12 10 9 8 5 15 13 4 7 11 14 16 15 11 8 8 8 7 8 10 12 14 16 16 17 18 18 17 17 13 11 14 12 13 11 11
12 10 4 9 3 13 12 13 9 5 2 7 13 14 13 7 11 14 17 16 16 13 10 9 9 8 8 10 12 14 15 15 16 17 17 17 17 15 14 13 12 11 10 9
9 6 2 3 2 3 5 8 6 9 8 12 16 19 15 5 12 15 15 15 15 10 8 8 7 7 7 8 10 12 14 15 15 16 16 13 16 16 14 13 14 12 11 10
9 9 4 5 14 15 10 10 10 8 8 10 11 15 7 9 10 9 9 9 9 8 7 6 5 4 5 6 9 11 13 14 14 16 16 16 16 15 15 14 15 13 12 13
8 6 8 10 5 4 13 16 17 12 9 7 8 17 4 8 5 6 8 7 6 6 5 4 4 3 5 7 9 11 12 14 14 14 15 16 16 16 16 16 15 14 14 14
7 6 4 4 5 5 9 12 16 11 6 9 12 19 3 5 6 6 8 8 6 5 5 6 5 6 7 8 9 11 12 13 13 14 15 16 17 17 18 16 15 15 15 14
4 7 12 15 6 7 10 13 15 15 11 16 23 29 25 13 9 8 8 8 9 8 7 9 9 9 9 9 10 11 12 13 13 14 16 17 18 18 17 16 15 15 15 15
6 9 14 19 16 9 10 12 16 21 25 23 27 29 34 24 17 16 14 13 13 13 12 12 12 12 11 11 12 12 13 13 14 16 17 18 17 16 15 15 14 14 14 15
8 8 9 16 20 17 16 18 20 23 24 28 29 33 32 25 17 17 17 16 18 18 17 16 14 13 13 13 12 13 14 14 14 17 18 16 14 14 13 13 13 13 14 14
6 5 6 13 13 10 19 25 27 24 23 22 28 33 28 25 22 22 21 18 19 21 20 19 18 16 13 13 12 13 13 12 13 15 13 12 12 13 14 13 14 15 16 14
10 8 6 8 9 21 15 15 22 26 28 26 23 25 26 25 21 20 21 19 20 20 20 19 17 17 14 10 10 10 8 10 12 13 13 12 14 14 13 14 15 15 13 14
18 15 10 9 16 17 15 11 11 16 23 23 26 28 30 26 20 26 22 17 21 20 17 15 13 13 11 9 8 7 8 10 11 13 14 14 13 13 13 14 15 13 12 12
19 19 15 14 17 15 13 6 6 10 18 14 15 20 23 20 18 20 11 8 11 10 7 7 6 7 8 7 4 5 8 9 12 12 11 10 11 11 13 13 12 10 9 10
6 11 17 20 21 14 9 4 6 11 11 5 6 12 15 17 17 14 8 5 4 4 4 4 5 5 5 4 3 6 7 9 7 5 6 8 9 10 10 9 8 8 8 8
9 8 11 12 17 14 3 3 8 6 6 6 7 8 10 12 12 10 8 6 4 4 4 4 4 4 4 3 2 4 4 3 4 6 7 7 8 8 7 8 8 9 9 9
13 11 7 8 8 5 4 7 8 6 9 11 11 11 10 10 11 9 7 5 4 3 3 3 3 3 4 3 1 2 1 3 5 6 6 7 8 7 8 9 10 9 9 8
8 5 9 10 11 11 11 10 9 8 10 12 13 12 9 11 11 8 6 4 3 2 2 2 2 2 3 4 3 2 3 4 6 7 7 7 8 8 7 7 8 8 8 8
8 7 9 13 13 12 10 8 8 9 9 11 12 10 10 9 9 7 4 3 2 1 1 1 1 2 3 4 5 4 3 5 7 7 7 7 6 7 7 6 6 7 7 8
15 15 14 14 11 11 13 10 9 10 11 10 10 9 7 7 7 4 3 1 1 1 1 2 3 3 4 5 5 5 3 4 6 7 6 5 5 5 5 5 4 6 6 9
Wind_Direction
106 190 210 211 212 209 175 193 220 228 124 232 251 261 265 267 254 258 260 258 254 251 251 235 215 206 205 206 206 205 203 198 191 187 188 191 197 191 191 193 189 183 173 169
167 223 223 155 156 154 182 215 242 252 167 248 275 274 270 262 256 253 255 255 254 254 250 232 214 205 205 205 205 205 205 199 196 195 192 194 183 185 185 176 187 186 177 173
211 202 164 154 173 198 217 230 240 239 181 231 287 278 255 249 251 256 254 255 258 255 254 245 219 211 209 210 207 205 204 200 198 192 181 153 143 149 176 192 191 189 183 178
228 174 150 182 200 200 228 227 235 229 254 258 233 280 271 243 254 252 253 249 250 250 249 249 236 218 214 214 208 207 204 202 198 191 191 189 193 198 199 189 181 179 185 183
211 183 181 198 203 194 195 111 170 208 236 266 221 253 270 239 257 254 251 251 252 252 251 249 241 230 221 211 206 205 204 203 200 197 199 202 206 207 191 178 176 178 182 186
234 186 215 207 115 161 130 107 89 95 213 259 229 229 266 234 248 258 247 248 255 259 259 256 250 230 219 204 201 201 204 205 203 202 202 205 206 200 187 184 181 180 179 184
216 214 200 151 119 141 173 160 192 214 219 249 158 232 259 230 234 252 266 270 268 267 266 258 242 222 210 200 198 199 203 207 205 206 208 209 210 204 201 193 188 181 180 186
215 224 193 189 184 173 194 199 206 226 232 254 188 240 261 226 267 273 267 265 268 265 258 255 249 234 216 204 199 199 204 208 206 208 211 210 211 206 206 201 192 190 191 188
213 233 162 192 191 171 179 218 233 242 262 273 256 256 273 236 257 255 255 258 261 261 254 251 246 234 221 207 202 201 204 208 208 209 211 211 210 208 205 199 198 196 194 182
204 226 164 151 155 253 202 165 156 202 223 244 254 258 259 226 237 243 250 257 266 268 258 248 240 230 219 210 204 203 206 209 209 209 211 211 210 209 205 198 198 196 190 179
211 224 193 170 202 194 172 188 202 205 219 228 250 257 240 230 233 246 259 269 278 280 266 252 242 225 214 208 205 205 207 210 211 210 210 211 211 208 205 202 200 195 188 182
204 221 237 223 213 247 213 209 199 204 216 227 251 265 211 217 242 255 275 285 289 289 280 270 263 240 223 217 212 212 211 212 211 208 210 212 211 208 207 205 201 194 190 186
159 185 222 232 205 195 221 222 219 224 207 211 232 259 242 217 243 248 262 281 287 284 281 273 260 247 233 225 219 217 216 215 211 207 209 211 212 210 209 206 199 194 190 186
168 203 220 235 238 180 208 218 216 213 221 233 237 253 260 245 250 261 264 274 286 284 269 266 258 251 239 230 225 221 221 215 209 207 209 214 214 211 210 206 199 194 190 188
191 225 236 252 259 241 233 235 224 222 230 239 248 252 261 263 263 265 269 274 277 278 273 262 256 254 247 235 228 224 223 215 208 208 212 216 214 211 208 204 198 194 192 192
204 228 237 251 253 251 252 248 239 235 240 246 254 259 262 274 272 266 263 262 265 266 266 267 264 257 253 244 233 226 224 216 207 211 215 215 209 205 203 199 193 192 194 193
217 219 235 256 255 249 245 239 240 241 238 241 249 256 267 270 269 267 268 263 261 264 266 267 268 268 260 254 240 233 226 213 207 214 214 208 202 200 200 194 192 196 196 193
240 231 241 258 252 246 248 247 240 243 245 242 246 257 263 268 273 273 273 271 268 267 268 269 270 272 270 258 248 240 223 208 207 213 212 205 202 201 196 194 198 198 195 195
226 233 241 245 251 259 261 247 229 236 249 246 246 254 262 268 274 274 269 258 261 268 271 273 275 277 279 268 254 229 215 209 210 214 212 206 200 196 194 197 199 197 194 197
221 222 230 239 249 251 258 244 219 234 254 253 248 254 262 268 268 272 282 264 268 277 282 286 292 287 279 277 256 219 217 210 216 215 210 200 192 191 194 196 194 192 192 195
205 218 225 236 246 252 256 245 164 223 256 270 247 255 264 263 262 283 301 294 284 288 297 303 296 287 292 299 246 226 221 223 217 189 180 181 184 188 189 185 181 177 181 182
243 241 234 237 244 248 230 177 222 271 317 298 283 269 267 273 281 284 285 283 284 292 307 314 302 302 317 315 235 226 229 206 153 156 162 167 168 172 168 168 170 172 174 175
232 234 241 239 254 292 270 254 272 284 279 281 282 280 272 270 274 276 276 279 287 299 316 328 316 322 342 349 324 196 162 134 135 135 141 147 150 153 158 164 166 168 172 176
250 247 247 255 260 272 285 286 285 284 279 280 278 276 268 264 268 270 267 268 279 308 330 337 336 352 357 3 23 68 109 122 125 129 134 140 144 149 155 160 165 171 176 178
266 272 261 263 272 283 277 276 288 296 291 287 285 276 267 262 262 261 257 253 262 303 3 20 24 33 19 19 36 46 90 120 123 126 131 138 143 147 155 161 171 177 183 187
249 250 256 263 272 276 281 280 284 284 283 281 281 276 261 245 251 244 229 211 165 53 58 72 64 58 42 38 36 26 38 116 129 130 135 137 140 143 148 152 156 182 182 193